Back to catalog

JILIN-01-05

AliveScienceSSO
NORAD 43023·PAYLOAD·🇨🇳 China

Launched Nov 21, 2017 from Taiyuan Satellite Launch Center

Loading…

Next Passes (next 24 hours)

TLE

FreshSource: Space-Track

Epoch: Sep 14, 2026, 14:07 UTC

1 43023U 17074B   26257.58887493  .00007468  00000-0  22161-3 0  9995
2 43023  97.4912   5.0539 0003496 272.7261  87.3582 15.35107168487714

Track JILIN-01-05 in real time with AllMySat

Download on the App Store